Regional Weather Roundup
Issued by NWS Austin/San Antonio, TX

Home | Current Version | Previous Version | Text Only | Print | Product List | Glossary On
Versions: 1 2 3 4 5 6 7 8 9 10 11 12 13 14 15 16 17 18 19 20 21 22 23 24 25 26 27 28 29 30 31 32 33 34 35 36 37 38 39 40 41 42 43 44 45 46 47 48 49 50
789
ASUS44 KEWX 201510
RWREWX
SOUTH TEXAS REGIONAL WEATHER ROUNDUP
NATIONAL WEATHER SERVICE AUSTIN/SAN ANTONIO TX
1000 AM CDT FRI OCT 20 2017

NOTE: "FAIR" INDICATED FEW OR NO CLOUDS BELOW 12,000 FEET WITH NO
SIGNIFICANT WEATHER AND/OR OBSTRUCTIONS TO VISIBILITY.

* - THESE STATIONS ARE NOT NWS OR FAA STATIONS...AND ARE NOT SUBJECT
    TO NWS AND FAA QUALITY CONTROL.

TXZ171-172-183>190-201600-
TEXAS HILL COUNTRY AND EDWARDS PLATEAU

CITY           SKY/WX    TMP DP  RH WIND       PRES   REMARKS
JUNCTION       CLOUDY    68  63  84 E10       30.08R
*LLANO         CLOUDY    66  64  94 CALM      30.13R
BURNET         LGT RAIN  67  63  87 CALM      30.12R FOG
*HORSESHOE BAY HVY RAIN  67  65  93 CALM      30.11R
*KERRVILLE     DRIZZLE   65  64  96 NE3       30.09F
*FREDERICKSBRG CLOUDY    66  64  94 CALM      30.09F
*ROCKSPRINGS   NOT AVBL
*BOERNE STAGE  CLOUDY    64  64 100 CALM      30.10R
*CASTROVILLE   CLOUDY    70  68  93 CALM      30.08R
HONDO          CLOUDY    71  68  90 E3        30.08R FOG
*UVALDE        CLOUDY    69  65  89 E5        30.08S
DEL RIO        CLOUDY    69  69 100 SE8       30.02S
LAUGHLIN AFB   CLOUDY    69  64  86 SE9       30.03S
CARRIZO SPRGS  CLOUDY    70  68  94 E3        30.04S
*EAGLE PASS    NOT AVBL
$$

TXZ173-191>194-202-209-217>225-228-201600-
CENTRAL AND SOUTH CENTRAL TEXAS

CITY           SKY/WX    TMP DP  RH WIND       PRES   REMARKS
GEORGETOWN     CLOUDY    68  62  81 VRB3      30.09S
AUSTIN/BERGSTM CLOUDY    67  65  93 CALM      30.05S
AUSTIN/MABRY   CLOUDY    70  64  81 CALM      30.07S
*AUSTIN/EXEC   CLOUDY    70  66  88 E3        30.06S
*LAGO VISTA    CLOUDY    67  65  91 CALM      30.09R
SAN MARCOS     CLOUDY    70  66  87 CALM      30.07R
NEW BRAUNFELS  CLOUDY    70  66  87 NE5       30.05R
RANDOLPH AFB   CLOUDY    71  66  85 CALM      30.06R
PT SAN ANTONIO CLOUDY    71  67  85 NE5       30.04R
SAN ANTONIO    CLOUDY    71  66  84 E6        30.06R
STINSON FIELD  CLOUDY    73  68  84 E5        30.04R
*LA GRANGE     CLOUDY    75  73  91 SE5       30.03S
*GIDDINGS      CLOUDY    72  68  86 SE7       30.06S
*GONZALES      CLOUDY    73  73 100 S3        30.04S
$$

TXZ163>164-176>182-195>201-210>213-226-227-235-201600-
SOUTHEAST TEXAS

CITY           SKY/WX    TMP DP  RH WIND       PRES   REMARKS
COLLEGE STN    PTSUNNY   73  68  84 NE7       30.07S
*BRYAN         CLOUDY    70  70 100 E3        30.09S
*CALDWELL      PTSUNNY   72  66  83 E7        30.07R
*CROCKETT        N/A     73  66  78 SE8       30.14R
*BRENHAM       MOSUNNY   76  72  86 SE9       30.06R
HUNTSVILLE     CLOUDY    73  68  84 CALM      30.10R
CONROE         CLOUDY    72  72 100 SE10      30.10R
HOUSTON BUSH   CLOUDY    74  72  93 E20G25    30.09R
HOUSTON HOBBY  MOSUNNY   78  73  84 E13G18    30.06S
*HOUSTON SW AP CLOUDY    76  73  92 E8        30.06S
PEARLAND       MOSUNNY   78  72  81 E10       30.07S
HOUSTON HOOKS  CLOUDY    75  71  87 E9G20     30.08R
ELLINGTON FLD  PTSUNNY   77  72  83 E7        30.09R
SUGAR LAND     PTSUNNY   77  73  87 E9        30.06R
*HOUSTON EXEC  SUNNY     77  73  88 E12       30.07R
*CLEVELAND MUN LGT RAIN  69  68  95 SE5       30.12R
*WHARTON       PTSUNNY   76  72  85 E6        30.05S
*COLUMBUS      CLOUDY    74  71  89 W6        30.06R
*EAGLE LAKE    PTSUNNY   78  75  92 E8        30.05R
$$

TXZ214>216-236>238-201600-
THE UPPER TEXAS COAST

CITY           SKY/WX    TMP DP  RH WIND       PRES   REMARKS
*ORANGE        RAIN      71  68  89 E9        30.12R
PORT ARTHUR    LGT RAIN  71  67  87 E13       30.08S
GALVESTON      PTSUNNY   78  73  84 E10       30.07R
ANGLETON       PTSUNNY   80  76  87 E6        30.04R
*BAY CITY      CLOUDY    81  76  84 E6        30.04R
PALACIOS       PTSUNNY   77  75  93 E3        30.03R
$$

TXZ229>234-239>247-201600-
TEXAS COASTAL BEND AND RIO GRANDE PLAINS

CITY           SKY/WX    TMP DP  RH WIND       PRES   REMARKS
VICTORIA       PTSUNNY   77  72  84 E5        30.04R
*BEEVILLE      CLOUDY   N/A N/A N/A CALM      30.04R
ROCKPORT       CLOUDY    77  73  87 NW6       30.02R
*PORT ARANSAS  NOT AVBL
*PORT LAVACA   PTSUNNY   75  72  90 CALM      30.03S
*INGLESIDE     NOT AVBL
CORPUS CHRISTI CLOUDY    77  74  90 CALM      30.03R
CORPUS NAS     PTSUNNY   81  75  82 N3        30.02R
*ROBSTOWN      CLOUDY    76  72  86 CALM      30.04R
ALICE          CLOUDY    73  73 100 CALM      30.03R FOG
KINGSVILLE NAS PTSUNNY   75  75 100 CALM      30.03R
COTULLA        NOT AVBL
*FAITH RANCH   PTSUNNY   75  70  83 SE5       30.04S
LAREDO         PTSUNNY   75  69  81 SE6       30.05R
$$

TXZ248>255-201600-
DEEP SOUTH TEXAS

CITY           SKY/WX    TMP DP  RH WIND       PRES   REMARKS
BROWNSVILLE    SUNNY     82  75  79 E6        30.02R
PORT ISABEL    SUNNY     82  74  76 SE8       30.01R
*SOUTH PADRE   NOT AVBL
HARLINGEN      MOSUNNY   80  75  84 E6        30.00S
*HEBBRONVILLE  CLOUDY    71  69  95 CALM      30.06R
MCALLEN        SUNNY     79  73  82 E8        30.01R
*WESLACO       SUNNY     79  73  79 E7        30.00S
FALFURRIAS     CLOUDY    73  72  95 CALM      30.03R
EDINBURG       SUNNY     76  74  95 E3        30.02R
*ZAPATA        PTSUNNY   75  69  81 SE5       30.03R
$$

TXZ213>215-236>238-242>244-246-247-251-254-255-201600-
CMAN STATIONS

STATION/POSITION TIME  TEMP    WIND        PRES    WAVE
                       AIR SEA DIR/SP/G            HT/PER
                 (UTC) (F)     (DEG/KT/KT) (MB)    (FT/S)
SABINE PASS      1412   75 78   90/ 14/ 18 1019.7
SEA RIM ST PARK  1400   75     100/ 15/ 19 1018.7
NORTH JETTY/GLS  1412      76  100/ 16/ 22 1017.0
EAGLE POINT      1412   75 74  130/ 14/ 18 1017.9
MORGANS POINT    1418   73 76   80/  9/ 12 1018.4
PORT O`CONNOR    1412   75 75   10/  4/  5 1016.2
MALAQUITE BEACH  1412   77 78   CALM  /  2 1015.7
BAFFIN BAY       1418   74 76  350/  3/  3 1016.4
PORT ISABEL      1418   80 78  110/  5/  6 1015.9
$$




USA.gov is the U.S. government's official web portal to all federal, state and local government web resources and services.